Visibility
8.1 13.4 12.1 15.0 15.0 15.0 4.0 15.0 0.5 15.0 15.0 0.1 15.0 15.0 15.0 15.0 15.0 15.0 15.0 15.0 15.0 15.0 15.0 15.0 15.0 15.0 15.0 15.0 15.0 15.0 15.0 15.0 15.0 15.0 15.0 15.0 15.0 15.0 15.0 15.0 15.0 15.0 15.0 15.0
6.1 11.1 8.9 15.0 15.0 15.0 3.8 2.2 15.0 14.0 14.9 13.3 15.0 15.0 15.0 15.0 15.0 15.0 15.0 15.0 15.0 15.0 15.0 15.0 15.0 15.0 15.0 15.0 15.0 15.0 15.0 15.0 15.0 15.0 15.0 15.0 15.0 15.0 15.0 15.0 15.0 15.0 15.0 15.0
7.2 5.3 4.9 11.7 15.0 15.0 3.8 0.2 0.0 0.7 8.0 15.0 15.0 15.0 15.0 15.0 15.0 15.0 15.0 15.0 15.0 15.0 15.0 15.0 15.0 15.0 15.0 15.0 15.0 15.0 15.0 15.0 15.0 15.0 15.0 15.0 15.0 15.0 15.0 15.0 15.0 15.0 15.0 15.0
5.8 4.2 4.7 8.1 15.0 13.1 8.3 0.2 6.0 11.3 0.1 10.3 15.0 15.0 15.0 15.0 15.0 15.0 15.0 15.0 15.0 15.0 15.0 15.0 15.0 15.0 15.0 15.0 15.0 15.0 15.0 15.0 15.0 15.0 15.0 15.0 15.0 15.0 15.0 15.0 15.0 15.0 15.0 15.0
6.5 3.7 4.9 6.2 15.0 9.8 12.6 0.0 15.0 15.0 14.9 15.0 15.0 15.0 15.0 15.0 15.0 15.0 15.0 15.0 15.0 15.0 15.0 15.0 15.0 15.0 15.0 15.0 15.0 15.0 15.0 15.0 15.0 15.0 15.0 15.0 15.0 15.0 15.0 15.0 15.0 15.0 15.0 15.0
6.2 3.2 5.1 5.4 15.0 5.7 8.7 10.8 12.7 15.0 15.0 13.2 12.6 15.0 15.0 15.0 15.0 15.0 15.0 15.0 15.0 15.0 15.0 15.0 15.0 15.0 15.0 15.0 15.0 15.0 15.0 15.0 15.0 15.0 15.0 15.0 15.0 15.0 15.0 15.0 15.0 15.0 15.0 15.0
5.7 3.0 6.4 5.7 15.0 8.5 8.9 12.2 15.0 15.0 15.0 7.7 15.0 15.0 15.0 15.0 15.0 15.0 15.0 15.0 15.0 15.0 15.0 15.0 15.0 15.0 15.0 15.0 15.0 15.0 15.0 15.0 15.0 15.0 15.0 15.0 15.0 15.0 15.0 15.0 15.0 15.0 15.0 15.0
3.5 3.8 8.2 5.5 15.0 15.0 14.6 15.0 15.0 15.0 15.0 15.0 15.0 15.0 15.0 15.0 15.0 15.0 15.0 15.0 15.0 15.0 15.0 15.0 15.0 15.0 15.0 15.0 15.0 15.0 15.0 15.0 15.0 15.0 15.0 15.0 15.0 15.0 15.0 15.0 15.0 15.0 15.0 15.0
3.0 8.7 6.1 13.4 15.0 15.0 9.5 15.0 15.0 15.0 13.8 15.0 15.0 15.0 15.0 15.0 15.0 15.0 15.0 15.0 15.0 15.0 15.0 15.0 15.0 15.0 15.0 15.0 15.0 15.0 15.0 15.0 15.0 15.0 15.0 15.0 15.0 15.0 15.0 15.0 15.0 15.0 15.0 15.0
4.3 9.6 7.5 15.0 15.0 15.0 15.0 1.2 15.0 11.6 1.3 8.5 14.7 15.0 15.0 15.0 15.0 15.0 15.0 15.0 15.0 15.0 15.0 15.0 15.0 15.0 15.0 15.0 15.0 15.0 15.0 15.0 15.0 15.0 15.0 15.0 15.0 15.0 15.0 15.0 15.0 15.0 15.0 15.0
7.5 8.3 12.2 15.0 15.0 15.0 15.0 6.5 15.0 15.0 9.3 13.8 10.9 15.0 15.0 15.0 15.0 15.0 15.0 15.0 15.0 15.0 15.0 15.0 15.0 15.0 15.0 15.0 15.0 15.0 15.0 15.0 15.0 15.0 15.0 15.0 15.0 15.0 15.0 15.0 15.0 15.0 15.0 15.0
7.9 11.3 15.0 15.0 15.0 12.1 15.0 14.5 15.0 15.0 1.8 14.5 6.7 15.0 11.0 15.0 15.0 15.0 15.0 15.0 15.0 15.0 15.0 3.3 15.0 15.0 9.9 15.0 15.0 15.0 15.0 15.0 15.0 15.0 15.0 15.0 15.0 15.0 15.0 15.0 15.0 15.0 15.0 15.0
6.7 13.4 15.0 15.0 11.0 15.0 15.0 15.0 15.0 15.0 0.0 2.7 15.0 5.7 7.6 8.6 15.0 15.0 15.0 15.0 15.0 15.0 15.0 15.0 15.0 14.9 15.0 15.0 15.0 15.0 15.0 14.4 15.0 15.0 15.0 15.0 15.0 15.0 15.0 15.0 15.0 15.0 15.0 15.0
12.5 11.8 9.2 8.6 7.6 13.2 15.0 15.0 15.0 15.0 0.7 0.5 15.0 15.0 15.0 10.1 15.0 15.0 15.0 15.0 15.0 15.0 15.0 8.9 2.5 8.9 15.0 15.0 15.0 15.0 15.0 11.2 15.0 15.0 15.0 15.0 15.0 15.0 15.0 15.0 15.0 15.0 15.0 15.0
9.8 11.5 7.8 8.7 11.0 6.6 15.0 15.0 15.0 15.0 0.8 0.0 15.0 15.0 14.0 14.1 15.0 15.0 15.0 15.0 15.0 15.0 4.4 0.1 10.0 15.0 15.0 15.0 15.0 15.0 15.0 15.0 15.0 15.0 15.0 15.0 15.0 15.0 15.0 15.0 15.0 15.0 15.0 15.0
14.5 15.0 15.0 15.0 14.9 15.0 15.0 15.0 15.0 15.0 15.0 0.0 7.1 15.0 15.0 11.4 5.6 13.2 8.5 15.0 15.0 15.0 15.0 15.0 15.0 15.0 15.0 15.0 15.0 15.0 15.0 15.0 15.0 15.0 15.0 15.0 15.0 15.0 15.0 15.0 15.0 15.0 15.0 15.0
15.0 15.0 15.0 15.0 11.8 15.0 5.1 0.5 15.0 15.0 4.3 0.1 5.1 12.0 15.0 15.0 12.7 0.8 5.1 15.0 15.0 15.0 15.0 3.6 15.0 15.0 15.0 15.0 15.0 15.0 15.0 15.0 15.0 15.0 15.0 15.0 15.0 15.0 15.0 15.0 15.0 15.0 15.0 15.0
15.0 15.0 8.6 14.3 14.7 15.0 15.0 15.0 15.0 11.6 3.4 14.7 0.0 0.1 0.2 8.2 0.1 0.6 5.4 0.2 15.0 14.0 7.7 3.1 15.0 15.0 9.8 15.0 15.0 15.0 15.0 15.0 15.0 15.0 15.0 15.0 15.0 15.0 15.0 15.0 15.0 15.0 15.0 15.0
15.0 15.0 13.0 14.0 15.0 14.1 15.0 15.0 15.0 11.2 8.2 0.1 0.0 0.0 0.1 9.5 0.1 0.1 2.6 5.9 0.0 0.4 0.0 1.4 7.6 0.2 11.7 15.0 15.0 15.0 15.0 15.0 15.0 15.0 15.0 15.0 15.0 15.0 15.0 15.0 15.0 15.0 15.0 15.0
15.0 15.0 15.0 0.1 15.0 11.9 14.9 13.8 15.0 14.8 15.0 11.8 0.1 0.3 0.1 1.2 0.1 0.0 0.2 0.1 0.1 0.0 0.1 6.5 0.1 0.7 15.0 15.0 15.0 15.0 15.0 15.0 15.0 7.8 0.2 15.0 15.0 15.0 15.0 15.0 15.0 15.0 15.0 15.0
15.0 9.2 0.2 10.7 13.9 15.0 10.5 0.0 3.5 0.4 4.3 0.1 4.4 15.0 15.0 15.0 0.4 0.1 0.2 0.1 0.1 0.1 0.1 0.3 0.1 0.1 15.0 15.0 15.0 15.0 15.0 15.0 15.0 15.0 15.0 15.0 15.0 15.0 15.0 15.0 15.0 15.0 15.0 15.0
10.4 5.1 12.8 0.4 2.0 2.6 0.5 0.2 0.9 0.0 14.9 0.1 0.0 6.6 15.0 0.1 15.0 10.3 0.1 0.1 0.2 0.1 1.1 0.1 0.0 2.7 14.4 15.0 15.0 15.0 15.0 15.0 15.0 15.0 15.0 15.0 15.0 15.0 15.0 15.0 15.0 15.0 15.0 6.7
7.8 14.3 3.9 0.1 0.0 0.0 0.0 0.2 0.1 0.0 0.0 0.1 0.0 0.0 0.1 0.3 9.2 0.1 0.1 4.2 0.1 0.1 0.0 0.0 0.1 0.0 0.5 0.8 15.0 2.6 14.9 9.9 15.0 11.8 15.0 15.0 12.7 13.8 15.0 15.0 3.7 0.5 0.1 0.1
0.0 0.0 0.1 0.1 0.1 0.1 0.1 0.0 0.1 0.0 0.0 0.1 0.1 0.1 0.2 0.1 0.1 0.0 0.1 0.0 0.0 0.1 0.1 0.1 0.0 0.0 0.0 11.7 15.0 15.0 5.9 4.2 5.4 7.9 9.0 13.7 14.0 2.6 0.1 0.1 0.1 0.1 0.1 0.1
0.0 0.1 0.1 0.1 0.0 0.1 0.1 0.0 0.0 0.0 0.0 0.1 0.1 0.2 0.3 0.2 0.0 0.0 0.1 0.2 0.1 0.1 0.1 0.1 0.1 0.0 0.1 0.0 0.5 15.0 8.3 1.9 0.3 0.2 0.1 0.1 0.1 0.1 0.1 0.1 0.1 0.2 0.2 3.5
0.1 0.3 0.1 0.1 0.1 0.1 0.1 0.1 0.1 0.0 0.1 0.1 15.0 0.1 0.2 0.0 0.8 14.5 0.3 0.5 0.3 0.1 0.1 0.0 0.0 0.1 0.0 0.0 0.1 0.1 0.1 0.1 0.1 0.1 0.1 0.1 0.1 0.1 0.1 0.1 0.1 1.8 4.9 11.3
0.3 0.1 0.1 0.1 0.1 0.1 0.1 0.1 0.1 0.0 0.0 0.1 6.7 7.4 0.1 0.9 1.5 0.3 0.3 0.1 0.1 0.1 0.1 0.0 0.0 0.0 0.1 0.1 0.1 0.1 0.1 0.1 0.1 0.1 0.1 0.1 0.1 0.1 0.9 1.6 1.7 0.3 0.1 0.5